Terminal Aerodrome Forecast
Issued by NWS Flagstaff, AZ

Home | Current Version | Previous Version | Text Only | Print | Product List | Glossary On
Versions: 1 2 3 4 5 6 7 8 9 10 11 12 13 14 15 16
277
FTUS45 KFGZ 270538
TAFINW
TAF
KINW 270538Z 2706/2806 20010KT P6SM SCT070
     FM270800 20014G25KT P6SM FEW030 BKN200
     FM271700 22025G35KT P6SM SCT060 BKN200
     FM280100 20017G24KT 5SM -SHRA BKN040=

USA.gov is the U.S. government's official web portal to all federal, state and local government web resources and services.